This is the latest recevied weather packets stored in our database for station/object DN9EM-1. If no packets are shown the sender has not sent any weather packets the latest 10 day(s).
| Time | Temp. | Humidity | Pressure | Rain* | Wind** | Luminosity | Snow |
|---|---|---|---|---|---|---|---|
| 1777847129 | 15° C | 90% | 1011.6 hPa | 0 mm | - | - | - |
| 1777846526 | 15° C | 90% | 1011.6 hPa | 0 mm | - | - | - |
| 1777845924 | 15° C | 90% | 1011.8 hPa | 0 mm | - | - | - |
| 1777845321 | 15° C | 90% | 1011.9 hPa | 0 mm | - | - | - |
| 1777844719 | 15° C | 91% | 1011.9 hPa | 0 mm | - | - | - |
| 1777844116 | 15° C | 91% | 1012 hPa | 0 mm | - | - | - |
| 1777843574 | 15° C | 91% | 1012 hPa | 0.25 mm | - | - | - |
| 1777842971 | 15.56° C | 90% | 1011.9 hPa | 0.25 mm | - | - | - |
| 1777842369 | 15.56° C | 90% | 1011.9 hPa | 0.25 mm | - | - | - |
| 1777841766 | 15.56° C | 90% | 1011.9 hPa | 0.25 mm | - | - | - |
| 1777841164 | 15.56° C | 90% | 1011.7 hPa | 0.25 mm | - | - | - |
| 1777840561 | 15.56° C | 89% | 1011.8 hPa | 0.25 mm | - | - | - |
| 1777839958 | 16.11° C | 88% | 1011.7 hPa | 0 mm | - | - | - |
| 1777839356 | 16.11° C | 86% | 1011.5 hPa | 0 mm | - | - | - |
| 1777838753 | 16.67° C | 83% | 1011.5 hPa | 0 mm | - | - | - |
| 1777838151 | 16.67° C | 82% | 1011.3 hPa | 0 mm | - | - | - |
| 1777837548 | 16.67° C | 80% | 1011.4 hPa | 0 mm | - | - | - |
| 1777836946 | 17.22° C | 79% | 1011.3 hPa | 0 mm | - | - | - |
| 1777836343 | 17.22° C | 79% | 1011.4 hPa | 0 mm | - | - | - |
| 1777835740 | 17.22° C | 79% | 1011.4 hPa | 0 mm | - | - | - |
| 1777835138 | 17.22° C | 78% | 1011.3 hPa | 0 mm | - | - | - |
| 1777834535 | 17.78° C | 75% | 1011.1 hPa | 0 mm | - | - | - |
| 1777833933 | 18.33° C | 71% | 1011.1 hPa | 0 mm | - | - | - |
| 1777833331 | 18.33° C | 70% | 1010.7 hPa | 0 mm | - | - | - |
| 1777832728 | 18.33° C | 69% | 1010.5 hPa | 0 mm | - | - | - |
* Rain latest hour (hover to see other rain measurements)
** Current wind speed in m/s (hover to see current wind gust speed)